Location: Poughquag
(41.6090°N, 73.6820°W)
Time: 14:05:48
(UTC-04:00)

Vanguard 3 - Pass Details

Date: 01 June 2020
Orbit: 510 x 3261 km, 33.3° (Epoch: 05 July)

Event Time Altitude Azimuth Distance (km) Brightness Sun altitude
Exits shadow 01:24:01 26° 157° (SSE) 4,570 10.4 -25.9°
Maximum altitude 01:26:07 27° 147° (SSE) 4,429 10.4 -25.8°
Drops below altitude 10° 01:37:28 10° 98° (E) 4,869 11.1 -25.4°
Sets 01:41:28 0° 87° (E) 5,486 11.6 -25.3°
